Simultaneous Nadir Overpasses (SNOs) Predictions

Prediction of SNOs between NOAA-20 and AQUA Satellite Orbit:

Table of predicted SNOs for the next 14.0 days since TLE Epoch: 3/9/2024
Index Date (NOAA-20) Time (NOAA-20) Lat,Lon (NOAA-20) SZA (NOAA-20 ) Date (AQUA) Time (AQUA) Lat,Lon (AQUA) SZA (AQUA ) Distance(km) Time Diff (sec)
1 03/10/2024 20:10:17 81.11, 156.66 92.58 03/10/2024 20:10:42 81.11, 156.63 92.57 0.65 25
2 03/10/2024 21:01:00 -81.14, -35.20 87.56 03/10/2024 21:00:04 -81.14, -35.23 87.52 0.38 56
3 03/13/2024 09:04:11 81.11, -36.72 91.55 03/13/2024 09:04:47 81.11, -36.87 91.55 2.82 36
4 03/13/2024 09:54:54 -81.14, 131.45 88.59 03/13/2024 09:54:09 -81.14, 131.30 88.54 2.55 45
5 03/15/2024 21:58:06 81.10, 129.48 90.59 03/15/2024 21:58:51 81.10, 129.56 90.54 1.38 45
6 03/15/2024 22:48:49 -81.13, -62.33 89.57 03/15/2024 22:48:13 -81.13, -62.24 89.56 1.49 36
7 03/18/2024 10:51:59 81.11, -63.62 89.51 03/18/2024 10:52:53 81.11, -63.71 89.49 1.56 54
8 03/18/2024 11:42:42 -81.14, 104.60 90.64 03/18/2024 11:42:15 -81.15, 104.52 90.61 1.49 27
9 03/20/2024 23:45:54 81.10, 102.48 88.55 03/20/2024 23:46:55 81.10, 102.59 88.50 1.93 61



Historial Predications of SNOs between NOAA-20 and AQUA
